ボリソフ彗星

C/2017 E1 ( Borisov )

English version
Home page
Updated on July 6, 2017

---------------------------------------------------------------------

・ プロフィール

発見日 2017年3月1日
発見光度 17.0等
発見者 Gennadii Vladimirovich Borisov (Nauchnij, Crimea)

・ 写真集

・ 軌道要素

Epoch 2017 Mar. 28.0 TT = JDT 2457840.5
T 2017 Apr. 10.13850 TT                                 MPCW
q   0.9006629            (2000.0)            P               Q
z  -0.0028648      Peri.  152.47301     +0.43485819     +0.88754943
 +/-0.0000353      Node   142.73323     -0.86548917     +0.45860072
e   1.0025803      Incl.   14.55413     -0.24865006     -0.04406119
From 156 observations 2017 Mar. 1-May 26, mean residual 0".6.

・ 星図

・ 光度変化

        m1 = 10.5 + 5 logΔ + 15.0 log r

---------------------------------------------------------------------

軌道要素はM.P.E.C. 2017-L52に掲載されたものです。
星図はステラナビゲータ Ver.10 (アストロアーツ) で作成したものです。
光度グラフはComet for Windowsで作成したものです。

---------------------------------------------------------------------

Copyright(C) Seiichi Yoshida (comet@aerith.net). All rights reserved.